Regional Weather Roundup
Issued by NWS

Home | Current Version | Previous Version | Graphics & Text | Print | Product List | Glossary On
Versions: 1 2 3 4 5 6 7 8 9 10 11 12 13 14 15 16 17 18 19 20 21 22 23 24 25 26 27 28 29 30 31 32 33 34 35 36 37 38 39 40 41 42 43 44 45 46 47 48 49 50
000
ASUS45 KSLC 180810
RWRUT

UTAH REGIONAL WEATHER ROUNDUP
NATIONAL WEATHER SERVICE SALT LAKE CITY UT
200 AM MDT THU SEP 18 2014

UTZ001>011-023>025-180900-

NORTHERN UTAH

CITY           SKY/WX    TMP DP  RH WIND       PRES   REMARKS
HILL AFB       CLEAR     72  42  33 E17       29.92S
LOGAN          CLEAR     56  47  71 CALM      29.90S
OGDEN          CLEAR     72  42  34 S13       29.89S
PROVO AIRPORT  CLEAR     66  43  42 SE7       29.96S
SALT LAKE CITY PTCLDY    74  45  35 SE10      29.89S
VERNAL         CLEAR     56  40  55 SW5       30.05S
WENDOVER       PTCLDY    73  43  33 NE5       29.86S
HEBER CITY     CLEAR     50  43  76 CALM      30.06R
WEST JORDAN    CLEAR     73  43  33 S13       29.94S

$$

UTZ012>022-026-027-180900-

SOUTHERN UTAH

CITY           SKY/WX    TMP DP  RH WIND       PRES   REMARKS
BRYCE CANYON   CLEAR     48  44  86 W7        30.21F
CEDAR CITY     CLEAR     62  50  64 SE3       30.05S
MILFORD        CLEAR     61  49  64 S8        29.99S
MOAB/CYNLANDS  CLEAR     65  45  48 CALM      29.97F
PRICE          CLEAR     67  35  30 CALM      30.07S
ST GEORGE      SUNNY     75  55  50 SE5       29.88S
KANAB            N/A     59  48  67 CALM      30.06R

$$

REGIONAL REPORTS     COLORADO/ARIZONA

CITY           SKY/WX    TMP DP  RH WIND       PRES   REMARKS
CRAIG, CO      CLEAR     45  38  76 CALM      30.13S
GRAND JUNCTION CLEAR     65  40  39 E10       30.02S
RIFLE          CLEAR     54  41  61 E6        30.08S
MONTROSE       CLEAR     60  43  53 SE6       30.11S
CORTEZ         CLEAR     48  46  93 CALM      30.14S
PAGE, AZ       CLEAR     72  52  49 CALM      29.97S
GRAND CANYON   CLEAR     49  46  90 CALM      30.14F
KINGMAN        CLEAR     67  61  81 SE6       29.92F
FLAGSTAFF      CLEAR     50  47  89 CALM      30.16S

$$

REGIONAL REPORTS    NEVADA/IDAHO/WYOMING

CITY           SKY/WX    TMP DP  RH WIND       PRES   REMARKS
LAS VEGAS, NV  CLEAR     85  58  39 S8        29.76S
ELY            CLEAR     60  44  55 S10       30.06S
ELKO           MOCLDY    74  46  36 S14G22    29.89S
POCATELLO, ID  CLEAR     69  46  43 E7        29.88F
BURLEY         CLOUDY    67  55  65 E7        29.80F
EVANSTON, WY   PTCLDY    59  38  45 SE7       30.14S
ROCK SPRINGS   CLEAR     59  35  40 SE6       30.13F

$$



USA.gov is the U.S. government's official web portal to all federal, state and local government web resources and services.